Погода в Варене

Поиск расширенной информации на нашем сайте:

Полезная информация:

Новости сайта



02.01.2020
Опубликован Долгосрочный прогноз погоды по городам России и ближнего зарубежья на январь 2020 года.
Карты: Прогноз на январь и февраль 2020 года, Сравнение прогнозируемой аномалии приземной температуры воздуха на январь 2020 года по разным моделям.




Погода в Варене - сегодня

Время (UTC), дата Ветер
(°,м/с) 
Видим.   Явления Облачность Т
(°С)
Тd
(°С)
f(%) Тe
(°С)
Pmin
(гПа)
dP
(гПа)
Po
(мм)
O2
(г/м3)
Тmin Tmax R s Состояние
почвы
00 16.01.22 270 (З) 2-4{06}  19000 м    6/0 
-1.2 -3.1 87 -2  1021.1  0.1  755  306           
03 16.01.22 210 (ЮЗ) 2-3{04}  20000 м    9/0 
-1.7 -2.8 92 -3  1020.8  -0.4  755  306           
06 16.01.22 220 (ЮЗ) 3-5{05}  20000 м    10/10 210 м 
[St]
-1.1 -2.2 92 -3  1019.6  -1.1  754  305  -1.9        замёрзшая 
09 16.01.22 210 (ЮЗ) 3-6{07}  20000 м    10/10 300 м 
[Sc]
-0.3 -1.9 89 -2  1018.5  -1  754  304           
12 16.01.22 220 (ЮЗ) 3-5{08}  14000 м    10/10 450 м 
[Sc]
-0.7 -3.5 81 -3  1016.3  -2.2  752  304           
15 16.01.22 200 (Ю) 4-7{09}  11000 м    10/10 400 м 
[Sc]
-1.5 -4.6 79 -4  1013.4  -2.9  750  304           
18 16.01.22 190 (Ю) 3-7{09}  3000 м  слаб. снег  10/10 300 м 
[Frnb|Ns]
-2.2 -3.8 89 -4  1009.7  -3.7  747  304    +0  0.3    равномерный
сухой снег
100% 
21 16.01.22 210 (ЮЗ) 3-6{09}  3800 м  слаб. снег  10/10 200 м 
-1.4 -2.1 95 -3  1006.4  -3.2  745  302           
00 17.01.22 220 (ЮЗ) 5-11{11}  5000 м  слаб. ливневой снег  10/10 200 м 
+0.2 -1 92 -3  1002  -4.3  741  299      0.9     
03 17.01.22 220 (ЮЗ) 5-10{11}  6000 м  слаб. ливневой дождь  10/10 200 м 
+1 +0 93 -2  996.8  -5.1  737  296           
06 17.01.22 210 (ЮЗ) 6-12{12}  10 км  слаб. дождь со снегом{ливн. осадки}  10/10 240 м 
[Frnb|Ns]
+1.7 +0.5 92 -1  989.8  -6.9  732  293  -2.2      мокрый или
старый снег
50-90% 
09 17.01.22 280 (З) 8-15{15}  15000 м  слаб. дождь{снег}  10/10 300 м 
[Frnb|Ns]
+1.1 -0.5 89 -3  989.2  -1.4  732  294          равномерный
мокрый или
старый снег
100% 
12 17.01.22 280 (З) 6-13{15}  20000 м  позёмок{снег, дождь}  8/5 1000 м средняя 
[Sc|As trans]
+0.1 -2.6 82 -3  993.4  4.1  735  296        неравномерный
мокрый или
старый снег
100% 
15 17.01.22 300 (СЗ) 7-13{17}  4600 м  слаб. снег  10/10 840 м 
[Frnb|Ns]
+0.1 -3.1 79 -4  997.1  3.7  738  297        неравномерный
мокрый или
старый снег
100% 
18 17.01.22 320 (СЗ) 8-18{19}  13000 м  слаб. снег  10/10 1080 м 
[Frnb|Ns]
-0.5 -6.2 65 -5  1005.5  8.2  744  301    +1.8  неравномерный
сухой снег
100% 
21 17.01.22 300 (СЗ) 5-10{18}  20000 м    ясно 
-2 -7.6 65 -5  1011.4  5.8  748  304           
00 18.01.22 280 (З) 4-7{10}  20000 м    9/0 
-2 -6.7 70 -5  1014.8  3.3  751  305           
03 18.01.22 290 (З) 5-9{09}  20000 м    9/9 1000 м 
-0.6 -4.6 74 -4  1016.3  1.6  752  304           
06 18.01.22 300 (СЗ) 4-8{11}  20000 м    1/1 1000 м 
[Sc]
-1.6 -4.8 79 -4  1019.6  3.2  754  306  -2.5    0.0  неравномерный
сухой снег
100% 
09 18.01.22 320 (СЗ) 4-8{10}  20000 м    1/1 1000 м 
[Sc]
-0.7 -5.4 70 -3  1023.3  3.7  757  306        неравномерный
сухой снег
100% 
12 18.01.22 310 (СЗ) 4-8{11}  20000 м    8/1 1000 м верхняя 
[Sc|Cs]
+0.5 -6.9 58 -2  1025.2  1.9  758  306        неравномерный
мокрый или
старый снег
100% 
15 18.01.22 300 (СЗ) 3-5{11}  20000 м    8/0 средняя, верхняя 
[Ac lent|Cs]
-1 -6.5 66 -3  1027.2  1.9  760  308        неравномерный
сухой снег
100% 
18 18.01.22 210 (ЮЗ) 2-2{05}  20000 м    9/9 1350 м 
[Sc]
-3.8 -5.5 88 -5  1028.3  0.9  761  311    +0.6    неравномерный
сухой снег
100% 
21 18.01.22 220 (ЮЗ) 2-3{03}  20000 м    9/9 600 м 
-2.4 -4.1 88 -3  1027.5  -0.7  760  309           
00 19.01.22 220 (ЮЗ) 2-3{04}  20000 м    3/0 
-2.9 -3.6 95 -4  1025.7  -1.8  759  309           
Время (UTC), дата Ветер
(°,м/с) 
Видим.   Явления Облачность Т
(°С)
Тd
(°С)
f(%) Тe
(°С)
Pmin
(гПа)
dP
(гПа)
Po
(мм)
O2
(г/м3)
Тmin Tmax R s Состояние
почвы

Для получения пояснительной информации подведите курсор к названию столбца.

ПОГОДА в Варене - архив

Всё, что Вы хотите узнать о погоде в Варене - удобно и подробно!

Выберите нужную дату (начиная с 1 января 2019* года) и нажмите кнопку "Найти".
Будут отображены архивные сводки погоды по пункту Варена, начиная с указанной даты.


Отображать данные в формате CSV (для использования в таблицах Excel)


Внимание! Наш архив погоды предназначен исключительно для личного некоммерческого использования в познавательных целях. Если Вам необходимы официальные справки о состоянии погоды (для производственных, юридических, коммерческих и т.п. целей), обращайтесь в органы Росгидромета.

*Примечание: данная дата относится к архиву по метеостанциям СССР (Россия, СНГ, Балтия).
Архив по метеостанциям Зарубежной Европы и Азии (кроме Китая) хранится 10 дней, по другим регионам земного шара (Китай, Африка, Америка, Австралия, Океания) - 1 день.

Варена - район местоположения метеостанции


Название, широта, долгота, высота метеостанции:
Варена 54.2°ш. 24.6°д. 111 м над ур. моря [Литва]

Дополнительная информация

В oтличие oт бoльшинства пoгoдных сайтoв мы публикуем пoдрoбную метеoинфoрмацию в детальнoм прoфессиoнальнoм фoрмате.

Характеристики температуры и влажнoсти вoздуха измеряются на высoте 2 м в тени вдали oт зданий и деревьев.
Скoрoсть ветра измеряется на высoте 10 м (на урoвне рoста челoвека скoрoсть ветра ниже в 1.5-2 раза). Если метеoстанция нахoдится в гoрoде или в лесу, тo скoрoсть ветра занижена на 2-4 м/с пo сравнению с oткрытым местoм. Скoрoсть ветра над акватoриями крупных рек и oзёр, а также на вершинах хoлмoв на 2-5 м/с выше, чем в oбычных услoвиях.
Атмoсфернoе давление в разных тoчках местнoсти мoжет значительнo oтличаться oт давления на метеoстанции, в зависимoсти oт услoвий рельефа (при пoдъёме на 10 м давление пoнижается примернo на 1 мм рт.ст.).